Météo par heure à Ali-Kuyu

Ce jour, 30 Octobre, Vendredi

Heure Température Précipitation Vent Pression Humidité
00:00 +16°C° 0 mm 5 m/s 754 mmHg 82%
01:00 +17°C° 0 mm 4 m/s 754 mmHg 82%
02:00 +17°C° 0 mm 4 m/s 753 mmHg 82%
03:00 +17°C° 0 mm 3 m/s 753 mmHg 86%
04:00 +17°C° 0 mm 3 m/s 753 mmHg 85%
05:00 +17°C° 0 mm 3 m/s 753 mmHg 85%
06:00 +17°C° 0 mm 3 m/s 753 mmHg 85%
07:00 +17°C° 0 mm 2 m/s 753 mmHg 83%
08:00 +18°C° 0 mm 2 m/s 754 mmHg 82%
09:00 +19°C° 0 mm 1 m/s 754 mmHg 81%
10:00 +19°C° 0 mm 1 m/s 754 mmHg 77%
11:00 +19°C° 0 mm 2 m/s 754 mmHg 74%
12:00 +19°C° 0 mm 2 m/s 754 mmHg 71%
13:00 +19°C° 0 mm 2 m/s 754 mmHg 70%
14:00 +19°C° 0 mm 2 m/s 754 mmHg 69%
15:00 +20°C° 0 mm 2 m/s 754 mmHg 68%
16:00 +18°C° 0 mm 2 m/s 754 mmHg 74%
17:00 +17°C° 0 mm 2 m/s 755 mmHg 79%
18:00 +16°C° 0 mm 2 m/s 755 mmHg 84%
19:00 +16°C° 0 mm 2 m/s 755 mmHg 87%
20:00 +15°C° 0 mm 2 m/s 755 mmHg 89%
21:00 +15°C° 0 mm 1 m/s 755 mmHg 91%
22:00 +15°C° 0 mm 2 m/s 754 mmHg 92%
23:00 +14°C° 0 mm 2 m/s 754 mmHg 93%

Demain, 31 Octobre, Samedi

Heure Température Précipitation Vent Pression Humidité
00:00 +14°C° 0 mm 2 m/s 754 mmHg 94%
01:00 +14°C° 0 mm 2 m/s 753 mmHg 94%
02:00 +14°C° 0 mm 2 m/s 753 mmHg 95%
03:00 +13°C° 0 mm 2 m/s 753 mmHg 95%
04:00 +13°C° 0 mm 2 m/s 753 mmHg 95%
05:00 +13°C° 0 mm 2 m/s 752 mmHg 96%
06:00 +13°C° 0 mm 2 m/s 752 mmHg 96%
07:00 +14°C° 0 mm 2 m/s 752 mmHg 92%
08:00 +15°C° 0 mm 2 m/s 752 mmHg 88%
09:00 +16°C° 0 mm 3 m/s 752 mmHg 84%
10:00 +17°C° 0 mm 3 m/s 752 mmHg 77%
11:00 +19°C° 0 mm 4 m/s 751 mmHg 70%
12:00 +20°C° 0 mm 4 m/s 751 mmHg 63%
13:00 +21°C° 0 mm 4 m/s 751 mmHg 60%
14:00 +21°C° 0 mm 4 m/s 751 mmHg 58%
15:00 +22°C° 0 mm 4 m/s 750 mmHg 56%
16:00 +20°C° 0 mm 4 m/s 751 mmHg 62%
17:00 +19°C° 0 mm 4 m/s 751 mmHg 69%
18:00 +17°C° 0 mm 4 m/s 751 mmHg 76%
19:00 +17°C° 0 mm 4 m/s 751 mmHg 80%
20:00 +15°C° 0 mm 4 m/s 751 mmHg 84%
21:00 +16°C° 0 mm 3 m/s 751 mmHg 89%
22:00 +14°C° 0 mm 3 m/s 751 mmHg 90%
23:00 +15°C° 0 mm 2 m/s 751 mmHg 91%

Après-demain, 1 Novembre, Dimanche

Heure Température Précipitation Vent Pression Humidité
00:00 +14°C° 0 mm 1 m/s 751 mmHg 92%
01:00 +14°C° 0 mm 1 m/s 751 mmHg 93%
02:00 +14°C° 0 mm 1 m/s 751 mmHg 93%
03:00 +14°C° 0 mm 2 m/s 752 mmHg 93%
04:00 +13°C° 0 mm 2 m/s 752 mmHg 94%
05:00 +13°C° 0 mm 2 m/s 752 mmHg 94%
06:00 +13°C° 0 mm 2 m/s 753 mmHg 95%
07:00 +13°C° 0 mm 2 m/s 753 mmHg 91%
08:00 +14°C° 0 mm 2 m/s 754 mmHg 87%
09:00 +14°C° 0 mm 3 m/s 754 mmHg 82%
10:00 +16°C° 0 mm 3 m/s 754 mmHg 78%
11:00 +17°C° 0 mm 3 m/s 754 mmHg 74%
12:00 +18°C° 0 mm 3 m/s 754 mmHg 69%
13:00 +18°C° 0 mm 3 m/s 754 mmHg 66%
14:00 +19°C° 0 mm 2 m/s 754 mmHg 63%
15:00 +19°C° 0 mm 2 m/s 754 mmHg 60%
16:00 +19°C° 0 mm 1 m/s 754 mmHg 65%
17:00 +18°C° 0 mm 1 m/s 754 mmHg 71%
18:00 +14°C° 0 mm 0 m/s 754 mmHg 77%
19:00 +15°C° 0 mm 1 m/s 754 mmHg 77%
20:00 +14°C° 0 mm 1 m/s 754 mmHg 77%
21:00 +14°C° 0 mm 1 m/s 754 mmHg 77%
22:00 +14°C° 0 mm 1 m/s 754 mmHg 77%
23:00 +13°C° 0 mm 1 m/s 754 mmHg 77%

2 Novembre, Lundi

Heure Température Précipitation Vent Pression Humidité
00:00 +13°C° 0 mm 1 m/s 754 mmHg 78%
01:00 +13°C° 0 mm 1 m/s 754 mmHg 76%
02:00 +13°C° 0 mm 2 m/s 754 mmHg 74%
03:00 +12°C° 0 mm 2 m/s 755 mmHg 72%
04:00 +12°C° 0 mm 2 m/s 755 mmHg 70%
05:00 +12°C° 0 mm 2 m/s 756 mmHg 69%
06:00 +10°C° 0 mm 2 m/s 756 mmHg 68%
07:00 +13°C° 0 mm 2 m/s 757 mmHg 65%
08:00 +14°C° 0 mm 2 m/s 757 mmHg 62%
09:00 +14°C° 0 mm 3 m/s 757 mmHg 60%
10:00 +17°C° 0 mm 3 m/s 758 mmHg 56%
11:00 +18°C° 0 mm 4 m/s 758 mmHg 52%
12:00 +19°C° 0 mm 4 m/s 758 mmHg 48%
13:00 +20°C° 0 mm 4 m/s 758 mmHg 45%
14:00 +20°C° 0 mm 4 m/s 758 mmHg 43%
15:00 +20°C° 0 mm 3 m/s 758 mmHg 40%
16:00 +19°C° 0 mm 3 m/s 759 mmHg 43%
17:00 +18°C° 0 mm 2 m/s 759 mmHg 45%
18:00 +16°C° 0 mm 2 m/s 759 mmHg 48%
19:00 +16°C° 0 mm 2 m/s 759 mmHg 54%
20:00 +15°C° 0 mm 1 m/s 759 mmHg 60%
21:00 +15°C° 0 mm 1 m/s 759 mmHg 66%
22:00 +14°C° 0 mm 1 m/s 759 mmHg 68%
23:00 +14°C° 0 mm 1 m/s 759 mmHg 70%

3 Novembre, Mardi

Heure Température Précipitation Vent Pression Humidité
00:00 +14°C° 0 mm 2 m/s 759 mmHg 73%
01:00 +14°C° 0 mm 2 m/s 758 mmHg 73%
02:00 +13°C° 0 mm 2 m/s 758 mmHg 73%
03:00 +13°C° 0 mm 2 m/s 758 mmHg 74%
04:00 +13°C° 0 mm 2 m/s 758 mmHg 74%
05:00 +13°C° 0 mm 2 m/s 758 mmHg 74%
06:00 +13°C° 0 mm 2 m/s 758 mmHg 74%
07:00 +14°C° 0 mm 2 m/s 758 mmHg 68%
08:00 +14°C° 0 mm 2 m/s 758 mmHg 62%
09:00 +14°C° 0 mm 3 m/s 758 mmHg 57%
10:00 +16°C° 0 mm 3 m/s 758 mmHg 49%
11:00 +18°C° 0 mm 3 m/s 758 mmHg 42%
12:00 +19°C° 0 mm 3 m/s 758 mmHg 35%
13:00 +19°C° 0 mm 3 m/s 758 mmHg 33%
14:00 +19°C° 0 mm 3 m/s 758 mmHg 31%
15:00 +20°C° 0 mm 3 m/s 758 mmHg 29%
16:00 +18°C° 0 mm 3 m/s 758 mmHg 30%
17:00 +17°C° 0 mm 3 m/s 758 mmHg 31%
18:00 +15°C° 0 mm 2 m/s 759 mmHg 32%
19:00 +15°C° 0 mm 2 m/s 759 mmHg 33%
20:00 +14°C° 0 mm 2 m/s 758 mmHg 35%
21:00 +13°C° 0 mm 2 m/s 758 mmHg 36%
22:00 +13°C° 0 mm 2 m/s 758 mmHg 37%
23:00 +13°C° 0 mm 2 m/s 758 mmHg 39%

4 Novembre, Mercredi

Heure Température Précipitation Vent Pression Humidité
00:00 +12°C° 0 mm 1 m/s 757 mmHg 40%
01:00 +12°C° 0 mm 1 m/s 757 mmHg 41%
02:00 +11°C° 0 mm 1 m/s 757 mmHg 43%
03:00 +11°C° 0 mm 1 m/s 757 mmHg 44%
04:00 +10°C° 0 mm 1 m/s 757 mmHg 45%
05:00 +10°C° 0 mm 1 m/s 757 mmHg 45%
06:00 +10°C° 0 mm 1 m/s 757 mmHg 46%
07:00 +11°C° 0 mm 1 m/s 757 mmHg 43%
08:00 +12°C° 0 mm 1 m/s 757 mmHg 39%
09:00 +14°C° 0 mm 1 m/s 757 mmHg 36%
10:00 +15°C° 0 mm 1 m/s 757 mmHg 33%
11:00 +16°C° 0 mm 1 m/s 757 mmHg 30%
12:00 +18°C° 0 mm 2 m/s 756 mmHg 27%
13:00 +18°C° 0 mm 2 m/s 756 mmHg 27%
14:00 +19°C° 0 mm 2 m/s 756 mmHg 27%
15:00 +20°C° 0 mm 3 m/s 756 mmHg 27%
16:00 +18°C° 0 mm 3 m/s 756 mmHg 30%
17:00 +17°C° 0 mm 2 m/s 757 mmHg 33%
18:00 +15°C° 0 mm 2 m/s 757 mmHg 36%
19:00 +15°C° 0 mm 2 m/s 757 mmHg 40%
20:00 +14°C° 0 mm 2 m/s 757 mmHg 44%
21:00 +14°C° 0 mm 2 m/s 757 mmHg 49%
22:00 +13°C° 0 mm 2 m/s 757 mmHg 53%
23:00 +13°C° 0 mm 2 m/s 757 mmHg 56%
Voir plus

Nous avons besoin de votre consentement

Meteoprog et ses fournisseurs de services peuvent stocker et accéder à des données personnelles telles que des cookies, des identifiants d'appareils ou d'autres technologies similaires sur votre appareil et traiter ces données pour personnaliser le contenu et les publicités, ainsi que pour fournir des fonctionnalités de médias sociaux et analyser le trafic.

  • Stocker et/ou accéder à des informations sur votre appareil

    Des cookies, des identifiants d'appareils ou d'autres informations peuvent être stockés ou accessibles sur votre appareil aux fins indiquées ci-dessus.

  • Annonces et contenus personnalisés, mesure des annonces et des contenus, connaissance de l'audience et développement de produits

    Les annonces et le contenu peuvent être personnalisés en fonction d'un profil. D'autres données peuvent être ajoutées pour mieux personnaliser les annonces et le contenu. Les performances des publicités et du contenu peuvent être mesurées. Il est possible d'obtenir des informations sur le public qui a vu les publicités et le contenu. Ces données peuvent être utilisées pour développer ou améliorer l'expérience de l'utilisateur, les systèmes et les logiciels.

En cliquant sur "J'accepte", vous autorisez l'utilisation de cookies, des identifiants d'appareils, des balises web ou d'autres technologies similaires. Vos paramètres peuvent être modifiés dans le navigateur de votre appareil.

Dans certains cas, des intérêts légitimes peuvent être invoqués plutôt qu'un consentement. Vous pouvez en savoir plus à ce sujet dans notre Politique de confidentialité et de cookies.